TimeCDT,TemperatureF,Dew PointF,Humidity,Sea Level PressureIn,VisibilityMPH,Wind Direction,Wind SpeedMPH,Gust SpeedMPH,PrecipitationIn,Events,Conditions,WindDirDegrees,DateUTC
12:15 AM,68.4,59.2,72,30.16,10.0,Calm,Calm,-,N/A,,Clear,0,2013-07-10 05:15:00
12:35 AM,66.6,59.0,77,30.16,10.0,Calm,Calm,-,N/A,,Clear,0,2013-07-10 05:35:00
12:55 AM,65.7,58.3,77,30.17,10.0,Calm,Calm,-,N/A,,Clear,0,2013-07-10 05:55:00
1:15 AM,65.7,58.1,77,30.17,10.0,SSE,3.5,-,N/A,,Clear,150,2013-07-10 06:15:00
1:35 AM,67.1,58.1,73,30.17,10.0,Calm,Calm,-,N/A,,Clear,0,2013-07-10 06:35:00
1:55 AM,62.6,56.8,81,30.17,10.0,NNW,3.5,-,N/A,,Clear,330,2013-07-10 06:55:00
2:15 AM,63.1,58.1,84,30.16,10.0,Calm,Calm,-,N/A,,Clear,0,2013-07-10 07:15:00
2:55 AM,63.7,57.4,80,30.16,10.0,Calm,Calm,-,N/A,,Clear,0,2013-07-10 07:55:00
3:15 AM,64.6,57.7,78,30.16,10.0,Calm,Calm,-,N/A,,Clear,0,2013-07-10 08:15:00
3:35 AM,63.7,57.2,79,30.16,10.0,Calm,Calm,-,N/A,,Clear,0,2013-07-10 08:35:00
3:55 AM,60.8,56.3,85,30.17,10.0,Calm,Calm,-,N/A,,Clear,0,2013-07-10 08:55:00
4:15 AM,59.7,55.8,87,30.17,10.0,Calm,Calm,-,N/A,,Clear,0,2013-07-10 09:15:00
4:35 AM,60.8,56.3,85,30.17,10.0,Calm,Calm,-,N/A,,Clear,0,2013-07-10 09:35:00
4:55 AM,58.3,54.9,88,30.19,10.0,Calm,Calm,-,N/A,,Clear,0,2013-07-10 09:55:00
5:15 AM,59.0,55.9,90,30.19,10.0,Calm,Calm,-,N/A,,Clear,0,2013-07-10 10:15:00
5:35 AM,58.8,55.0,87,30.19,10.0,Calm,Calm,-,N/A,,Clear,0,2013-07-10 10:35:00
5:55 AM,60.4,56.5,87,30.19,10.0,Calm,Calm,-,N/A,,Clear,0,2013-07-10 10:55:00
6:15 AM,59.5,55.9,88,30.20,10.0,SSW,5.8,-,N/A,,Clear,210,2013-07-10 11:15:00
6:35 AM,58.8,55.4,88,30.19,10.0,Calm,Calm,-,N/A,,Clear,0,2013-07-10 11:35:00
6:55 AM,58.5,55.8,91,30.20,10.0,Calm,Calm,-,N/A,,Clear,0,2013-07-10 11:55:00
7:15 AM,59.9,57.2,91,30.20,10.0,WNW,3.5,-,N/A,,Clear,290,2013-07-10 12:15:00
7:35 AM,62.2,58.5,87,30.20,10.0,NNW,3.5,-,N/A,,Clear,330,2013-07-10 12:35:00
7:55 AM,63.9,59.0,84,30.20,10.0,Calm,Calm,-,N/A,,Clear,0,2013-07-10 12:55:00
8:15 AM,67.6,59.5,75,30.20,10.0,Calm,Calm,-,N/A,,Clear,0,2013-07-10 13:15:00
8:35 AM,70.9,60.1,69,30.20,10.0,ENE,5.8,-,N/A,,Scattered Clouds,60,2013-07-10 13:35:00
8:55 AM,71.2,59.4,66,30.21,10.0,East,4.6,-,N/A,,Clear,90,2013-07-10 13:55:00
9:15 AM,71.2,59.9,67,30.21,10.0,ENE,4.6,-,N/A,,Clear,70,2013-07-10 14:15:00
9:35 AM,72.3,59.0,63,30.21,10.0,East,5.8,-,N/A,Thunderstorm,Clear,90,2013-07-10 14:35:00
9:55 AM,72.5,59.2,63,30.21,10.0,East,5.8,-,N/A,,Clear,80,2013-07-10 14:55:00
10:15 AM,72.7,59.2,62,30.23,10.0,Calm,Calm,-,N/A,,Clear,0,2013-07-10 15:15:00
10:35 AM,-9999,-9999,N/A,30.21,10.0,Calm,Calm,-,N/A,,Clear,0,2013-07-10 15:35:00
10:55 AM,-9999,-9999,N/A,30.20,-9999.0,ESE,4.6,-,N/A,,Clear,110,2013-07-10 15:55:00
11:15 AM,73.6,59.5,61,30.19,10.0,SE,6.9,-,N/A,,Clear,130,2013-07-10 16:15:00
11:35 AM,74.1,60.1,61,30.19,10.0,ESE,9.2,-,N/A,,Clear,110,2013-07-10 16:35:00
11:55 AM,75.6,60.6,60,30.17,10.0,SE,10.4,-,N/A,,Clear,130,2013-07-10 16:55:00
12:15 PM,77.4,60.3,55,30.17,10.0,ESE,9.2,18.4,N/A,,Clear,120,2013-07-10 17:15:00
12:35 PM,78.8,59.9,52,30.17,10.0,ESE,9.2,-,N/A,,Clear,110,2013-07-10 17:35:00
12:55 PM,79.9,59.5,50,30.17,10.0,SSE,10.4,-,N/A,,Clear,150,2013-07-10 17:55:00
1:15 PM,82.2,59.4,46,30.17,10.0,SSE,11.5,17.3,N/A,,Clear,160,2013-07-10 18:15:00
1:35 PM,83.1,59.2,44,30.15,10.0,SSE,13.8,18.4,N/A,,Clear,150,2013-07-10 18:35:00
1:55 PM,83.3,59.2,44,30.15,10.0,SSE,10.4,-,N/A,,Clear,150,2013-07-10 18:55:00
2:15 PM,85.3,59.2,41,30.14,10.0,SE,10.4,16.1,N/A,,Clear,140,2013-07-10 19:15:00
2:35 PM,85.5,59.0,41,30.12,10.0,SE,9.2,19.6,N/A,Thunderstorm,Clear,130,2013-07-10 19:35:00
2:55 PM,86.4,58.5,39,30.11,10.0,SE,10.4,-,N/A,,Clear,130,2013-07-10 19:55:00
3:15 PM,86.9,58.3,38,30.11,10.0,ESE,10.4,-,N/A,,Clear,110,2013-07-10 20:15:00
3:35 PM,88.0,57.0,35,30.10,10.0,ESE,9.2,18.4,N/A,,Scattered Clouds,110,2013-07-10 20:35:00
3:55 PM,88.5,57.2,34,30.10,10.0,SE,9.2,-,N/A,,Scattered Clouds,130,2013-07-10 20:55:00
4:15 PM,88.5,57.2,34,30.09,10.0,SE,10.4,-,N/A,,Clear,140,2013-07-10 21:15:00
4:35 PM,88.2,56.7,34,30.08,10.0,SSE,9.2,-,N/A,,Clear,150,2013-07-10 21:35:00
4:55 PM,88.9,56.1,33,30.08,10.0,ESE,6.9,-,N/A,,Clear,120,2013-07-10 21:55:00
5:15 PM,88.9,55.6,32,30.07,10.0,SSE,16.1,-,N/A,,Clear,150,2013-07-10 22:15:00
5:35 PM,88.3,54.9,32,30.07,10.0,SE,12.7,18.4,N/A,,Clear,140,2013-07-10 22:35:00
5:55 PM,88.3,54.7,32,30.07,10.0,SE,13.8,17.3,N/A,,Clear,130,2013-07-10 22:55:00
6:15 PM,87.6,54.7,32,30.07,10.0,SE,13.8,20.7,N/A,,Clear,140,2013-07-10 23:15:00
6:35 PM,87.6,55.4,33,30.05,10.0,SSE,12.7,-,N/A,,Clear,150,2013-07-10 23:35:00
6:55 PM,86.9,56.5,35,30.05,10.0,SSE,17.3,-,N/A,,Clear,160,2013-07-10 23:55:00
7:15 PM,86.4,56.1,36,30.05,10.0,South,13.8,-,N/A,,Clear,170,2013-07-11 00:15:00
7:35 PM,84.6,57.2,39,30.06,10.0,South,15.0,20.7,N/A,,Clear,170,2013-07-11 00:35:00
7:55 PM,83.3,57.2,41,30.07,10.0,SSE,12.7,-,N/A,,Clear,160,2013-07-11 00:55:00
8:15 PM,82.9,57.2,41,30.07,10.0,SSE,10.4,-,N/A,,Clear,150,2013-07-11 01:15:00
8:35 PM,80.4,58.3,47,30.08,10.0,SSE,10.4,-,N/A,,Clear,150,2013-07-11 01:35:00
8:55 PM,79.0,58.6,50,30.09,10.0,SSE,8.1,-,N/A,,Clear,150,2013-07-11 01:55:00
9:15 PM,77.2,58.1,52,30.09,10.0,SSE,6.9,-,N/A,,Scattered Clouds,150,2013-07-11 02:15:00
9:35 PM,76.1,58.3,54,30.08,10.0,SSE,5.8,-,N/A,,Scattered Clouds,150,2013-07-11 02:35:00
9:55 PM,75.2,58.3,56,30.09,10.0,SSE,6.9,-,N/A,,Scattered Clouds,150,2013-07-11 02:55:00
10:15 PM,74.5,58.1,57,30.10,10.0,South,10.4,-,N/A,,Clear,170,2013-07-11 03:15:00
10:35 PM,75.2,56.5,52,30.10,10.0,SSE,9.2,-,N/A,,Clear,160,2013-07-11 03:35:00
10:55 PM,74.3,56.7,54,30.10,10.0,SSE,10.4,-,N/A,,Clear,160,2013-07-11 03:55:00
11:15 PM,74.1,57.2,55,30.09,10.0,SSE,9.2,-,N/A,,Clear,150,2013-07-11 04:15:00
11:35 PM,72.5,58.1,60,30.09,10.0,SSE,9.2,-,N/A,,Clear,160,2013-07-11 04:35:00
11:55 PM,72.7,59.0,62,30.10,10.0,South,5.8,-,N/A,,Clear,170,2013-07-11 04:55:00